Location: Kalberh�ni
(46.4610°N, 7.2453°E)
Time: 06:24:49
(UTC+00:00)

Cosmos 1802 Rocket - Pass Details

Date: 23 October 2021
Orbit: 955 x 1010 km, 82.9° (Epoch: 05 December)

Event Time Altitude Azimuth Distance (km) Brightness Sun altitude
Exits shadow 19:57:58 30° 352° (N) 1,663 5.4 -35.9°
Drops below altitude 10° 20:00:59 10° 3° (N) 2,703 6.5 -36.4°
Sets 20:03:32 0° 7° (N) 3,658 7.2 -36.8°
